Location: Alston School (historical)
(35.5076°N, 89.8251°W)
Time: 06:04:50
(UTC+00:00)

USA 238 - Pass Details

Date: 09 December 2025
Orbit: 883 x 1328 km, 63.4° (Epoch: 10 January)

Event Time Altitude Azimuth Distance (km) Brightness Sun altitude
Rises 23:28:26 0° 192° (SSW) 3,471 6.9 -8.6°
Reaches altitude 10° 23:30:57 10° 187° (S) 2,552 6.1 -9.1°
Maximum altitude 23:36:33 47° 114° (ESE) 1,209 3.7 -10.1°
Enters shadow 23:42:30 10° 43° (NE) 2,719 5.3 -11.3°
